User: anonymous   Login
Location: Springfield
(37.2150°N, 93.2980°W)
Time: 03:58:23
(UTC-06:00)
Language:

Iridium 62 - Orbit

View from above orbital plane
View from above orbital plane
View from above satellite
View from above satellite

Ground track
Ground track

The orbit data is extracted from the following two-line orbital elements,

1 25285U 98021A   14329.31556416  .00000511  00000-0  17521-3 0   247
2 25285 086.3977 254.6487 0002115 102.6156 257.5276 14.34221307871029
Epoch (UTC): 25 November 2014 07:34:24
Eccentricity: 0.0002115
inclination: 86.3977°
perigee height: 776 km
apogee height: 779 km
right ascension of ascending node: 254.6487°
argument of perigee: 102.6156°
revolutions per day: 14.34221307
mean anomaly at epoch: 257.5276°
orbit number at epoch: 87102

The dashed part of the orbit path shows where the satellite is in the earth's shadow,  

DLR